Overview Statistics Trail Chart Weather Telemetry Raw packets
 

This is the latest recevied weather packets stored in our database for station/object K5MGY. If no packets are shown the sender has not sent any weather packets the latest 10 day(s).

<< 110 111 112 113 114 >>
Time Temp. Humidity Pressure Rain* Wind** Luminosity Snow
1787772013 32.78° C 55% 1039.1 hPa 0 mm - 87 W/m² -
1787771708 32.78° C 55% 1039 hPa 0 mm - 84 W/m² -
1787771407 32.78° C 55% 1039.1 hPa 0 mm - 73 W/m² -
1787771106 32.78° C 54% 1039.1 hPa 0 mm - 69 W/m² -
1787770802 32.78° C 54% 1039.1 hPa 0 mm - 66 W/m² -
1787770501 32.78° C 54% 1039 hPa 0 mm - 59 W/m² -
1787770200 32.78° C 54% 1039.3 hPa 0 mm - 54 W/m² -
1787769899 32.78° C 54% 1039.1 hPa 0 mm - 51 W/m² -
1787769594 32.78° C 53% 1039.4 hPa 0 mm - 52 W/m² -
1787769292 32.78° C 53% 1039.4 hPa 0 mm - 54 W/m² -
1787768987 32.78° C 53% 1039.2 hPa 0 mm - 50 W/m² -
1787768683 33.33° C 52% 1039.4 hPa 0 mm - 51 W/m² -
1787768379 33.33° C 51% 1039.4 hPa 0 mm - 60 W/m² -
1787768080 33.33° C 51% 1039.3 hPa 0 mm - 77 W/m² -
1787767775 33.89° C 50% 1039.2 hPa 0 mm - 91 W/m² -
1787767470 33.89° C 51% 1039.1 hPa 0 mm - 92 W/m² -
1787767169 33.89° C 51% 1039.3 hPa 0 mm - 87 W/m² -
1787766867 33.89° C 51% 1039.2 hPa 0 mm - 77 W/m² -
1787766562 34.44° C 50% 1039 hPa 0 mm - 69 W/m² -
1787766261 34.44° C 50% 1039.1 hPa 0 mm - 62 W/m² -
1787765956 34.44° C 49% 1039.3 hPa 0 mm - 62 W/m² -
1787765653 35° C 48% 1039.1 hPa 0 mm - 74 W/m² -
1787765348 35° C 48% 1039.3 hPa 0 mm - 101 W/m² -
1787765047 35° C 48% 1039.1 hPa 0 mm - 113 W/m² -
1787764742 35° C 48% 1039 hPa 0 mm - 134 W/m² -

* Rain latest hour (hover to see other rain measurements)
** Current wind speed in m/s (hover to see current wind gust speed)